TimeMDT,TemperatureF,Dew PointF,Humidity,Sea Level PressureIn,VisibilityMPH,Wind Direction,Wind SpeedMPH,Gust SpeedMPH,PrecipitationIn,Events,Conditions,WindDirDegrees,DateUTC
12:15 AM,46.4,35.6,66,29.61,10.0,South,3.5,-,N/A,,Clear,190,2013-04-09 06:15:00
12:35 AM,46.4,35.6,66,29.61,10.0,SSE,6.9,-,N/A,,Partly Cloudy,160,2013-04-09 06:35:00
12:55 AM,46.4,33.8,62,29.61,10.0,Calm,Calm,-,N/A,,Partly Cloudy,0,2013-04-09 06:55:00
1:15 AM,48.2,32.0,54,29.61,10.0,West,5.8,-,N/A,,Clear,280,2013-04-09 07:15:00
1:35 AM,48.2,30.2,50,29.60,10.0,WNW,10.4,-,N/A,,Scattered Clouds,300,2013-04-09 07:35:00
1:55 AM,48.2,30.2,50,29.61,10.0,WNW,4.6,-,N/A,,Partly Cloudy,300,2013-04-09 07:55:00
2:15 AM,48.2,30.2,50,29.60,10.0,NE,3.5,-,N/A,,Clear,40,2013-04-09 08:15:00
2:35 AM,44.6,33.8,66,29.61,10.0,SE,9.2,-,N/A,,Clear,130,2013-04-09 08:35:00
2:55 AM,44.6,33.8,66,29.61,10.0,SE,9.2,-,N/A,,Clear,140,2013-04-09 08:55:00
3:15 AM,42.8,33.8,70,29.61,10.0,SE,9.2,-,N/A,,Clear,140,2013-04-09 09:15:00
3:35 AM,42.8,32.0,66,29.61,10.0,SSE,6.9,-,N/A,,Clear,150,2013-04-09 09:35:00
3:55 AM,44.6,30.2,57,29.62,10.0,SSW,8.1,-,N/A,,Clear,200,2013-04-09 09:55:00
4:15 AM,42.8,30.2,61,29.62,10.0,South,9.2,-,N/A,,Partly Cloudy,180,2013-04-09 10:15:00
4:35 AM,44.6,30.2,57,29.63,10.0,South,10.4,-,N/A,,Partly Cloudy,180,2013-04-09 10:35:00
4:55 AM,44.6,30.2,57,29.63,10.0,ESE,11.5,-,N/A,,Mostly Cloudy,120,2013-04-09 10:55:00
5:15 AM,42.8,32.0,66,29.65,10.0,ESE,13.8,-,N/A,,Scattered Clouds,120,2013-04-09 11:15:00
5:35 AM,44.6,30.2,57,29.67,10.0,SE,12.7,-,N/A,,Scattered Clouds,130,2013-04-09 11:35:00
5:55 AM,46.4,30.2,53,29.69,10.0,ENE,11.5,-,N/A,,Partly Cloudy,70,2013-04-09 11:55:00
6:15 AM,46.4,28.4,50,29.70,10.0,NE,10.4,19.6,N/A,,Partly Cloudy,50,2013-04-09 12:15:00
6:35 AM,46.4,26.6,46,29.71,10.0,NE,12.7,24.2,N/A,,Mostly Cloudy,50,2013-04-09 12:35:00
6:55 AM,44.6,28.4,53,29.73,10.0,NNE,12.7,20.7,N/A,,Mostly Cloudy,30,2013-04-09 12:55:00
7:15 AM,44.6,26.6,49,29.74,10.0,NE,16.1,28.8,N/A,,Overcast,50,2013-04-09 13:15:00
7:35 AM,44.6,26.6,49,29.76,10.0,NE,15.0,23.0,N/A,,Mostly Cloudy,50,2013-04-09 13:35:00
7:55 AM,44.6,26.6,49,29.77,10.0,ENE,11.5,17.3,N/A,,Scattered Clouds,60,2013-04-09 13:55:00
8:15 AM,44.6,26.6,49,29.77,10.0,NE,8.1,19.6,N/A,,Partly Cloudy,40,2013-04-09 14:15:00
8:35 AM,44.6,26.6,49,29.78,10.0,NE,8.1,-,N/A,,Partly Cloudy,50,2013-04-09 14:35:00
8:55 AM,44.6,26.6,49,29.80,10.0,NE,11.5,19.6,N/A,,Mostly Cloudy,50,2013-04-09 14:55:00
9:15 AM,44.6,26.6,49,29.81,10.0,East,8.1,-,N/A,,Scattered Clouds,80,2013-04-09 15:15:00
9:35 AM,44.6,26.6,49,29.82,10.0,NE,10.4,-,N/A,,Clear,50,2013-04-09 15:35:00
9:55 AM,46.4,24.8,43,29.83,10.0,ENE,10.4,-,N/A,,Scattered Clouds,70,2013-04-09 15:55:00
10:15 AM,46.4,24.8,43,29.85,10.0,NNE,11.5,-,N/A,,Mostly Cloudy,30,2013-04-09 16:15:00
10:35 AM,46.4,24.8,43,29.85,10.0,ENE,12.7,-,N/A,,Overcast,60,2013-04-09 16:35:00
10:55 AM,48.2,24.8,40,29.85,10.0,East,6.9,-,N/A,,Overcast,100,2013-04-09 16:55:00
11:15 AM,50.0,24.8,37,29.86,10.0,North,6.9,-,N/A,,Overcast,10,2013-04-09 17:15:00
11:35 AM,50.0,23.0,35,29.86,10.0,Calm,Calm,-,N/A,,Mostly Cloudy,0,2013-04-09 17:35:00
11:55 AM,50.0,21.2,32,29.86,10.0,Calm,Calm,-,N/A,,Mostly Cloudy,0,2013-04-09 17:55:00
12:15 PM,51.8,23.0,33,29.87,10.0,NE,5.8,-,N/A,,Mostly Cloudy,40,2013-04-09 18:15:00
12:35 PM,51.8,24.8,35,29.88,10.0,ENE,15.0,18.4,N/A,,Overcast,60,2013-04-09 18:35:00
12:55 PM,51.8,23.0,33,29.89,10.0,NE,18.4,23.0,N/A,,Overcast,50,2013-04-09 18:55:00
1:15 PM,51.8,23.0,33,29.88,10.0,NE,15.0,19.6,N/A,,Overcast,40,2013-04-09 19:15:00
1:35 PM,53.6,23.0,30,29.88,10.0,NE,4.6,-,N/A,,Mostly Cloudy,50,2013-04-09 19:35:00
1:55 PM,53.6,23.0,30,29.89,10.0,NE,15.0,19.6,N/A,,Scattered Clouds,50,2013-04-09 19:55:00
2:15 PM,53.6,21.2,28,29.89,10.0,NNE,5.8,-,N/A,,Mostly Cloudy,30,2013-04-09 20:15:00
2:35 PM,53.6,21.2,28,29.90,10.0,North,10.4,20.7,N/A,,Mostly Cloudy,10,2013-04-09 20:35:00
2:55 PM,53.6,21.2,28,29.90,10.0,NW,11.5,20.7,N/A,,Mostly Cloudy,320,2013-04-09 20:55:00
3:15 PM,53.6,19.4,26,29.90,10.0,ENE,10.4,20.7,N/A,,Overcast,70,2013-04-09 21:15:00
3:35 PM,53.6,21.2,28,29.91,10.0,NE,18.4,27.6,N/A,,Overcast,50,2013-04-09 21:35:00
3:55 PM,51.8,21.2,30,29.92,10.0,NE,19.6,25.3,N/A,,Mostly Cloudy,50,2013-04-09 21:55:00
4:15 PM,51.8,23.0,33,29.92,10.0,NNE,17.3,29.9,N/A,,Mostly Cloudy,20,2013-04-09 22:15:00
4:35 PM,55.4,24.8,31,29.91,10.0,ENE,18.4,25.3,N/A,,Mostly Cloudy,70,2013-04-09 22:35:00
4:55 PM,55.4,23.0,29,29.92,10.0,East,10.4,20.7,N/A,,Partly Cloudy,80,2013-04-09 22:55:00
5:15 PM,55.4,23.0,29,29.93,10.0,NE,19.6,26.5,N/A,,Mostly Cloudy,50,2013-04-09 23:15:00
5:35 PM,53.6,23.0,30,29.93,10.0,ENE,17.3,29.9,N/A,,Scattered Clouds,60,2013-04-09 23:35:00
5:55 PM,53.6,23.0,30,29.94,10.0,NE,15.0,19.6,N/A,,Clear,50,2013-04-09 23:55:00
6:15 PM,53.6,21.2,28,29.94,10.0,ENE,21.9,27.6,N/A,,Clear,60,2013-04-10 00:15:00
6:35 PM,53.6,21.2,28,29.95,10.0,ENE,19.6,28.8,N/A,,Partly Cloudy,60,2013-04-10 00:35:00
6:55 PM,50.0,21.2,32,29.96,10.0,NE,23.0,28.8,N/A,,Mostly Cloudy,50,2013-04-10 00:55:00
7:15 PM,50.0,21.2,32,29.97,10.0,NE,21.9,25.3,N/A,,Mostly Cloudy,50,2013-04-10 01:15:00
7:35 PM,51.8,21.2,30,29.97,10.0,NE,19.6,29.9,N/A,,Overcast,50,2013-04-10 01:35:00
7:55 PM,50.0,19.4,30,29.98,10.0,NE,20.7,28.8,N/A,,Overcast,50,2013-04-10 01:55:00
8:15 PM,48.2,21.2,34,29.98,10.0,NE,16.1,21.9,N/A,,Partly Cloudy,40,2013-04-10 02:15:00
8:55 PM,48.2,19.4,32,30.01,10.0,NE,20.7,26.5,N/A,,Partly Cloudy,50,2013-04-10 02:55:00
9:15 PM,48.2,19.4,32,30.02,10.0,NE,20.7,28.8,N/A,,Partly Cloudy,50,2013-04-10 03:15:00
9:35 PM,48.2,19.4,32,30.03,10.0,NE,12.7,26.5,N/A,,Mostly Cloudy,40,2013-04-10 03:35:00
9:55 PM,48.2,19.4,32,30.04,10.0,ENE,15.0,23.0,N/A,,Mostly Cloudy,70,2013-04-10 03:55:00
10:15 PM,48.2,19.4,32,30.04,10.0,NE,10.4,24.2,N/A,,Scattered Clouds,40,2013-04-10 04:15:00
10:35 PM,48.2,19.4,32,30.05,10.0,NE,17.3,29.9,N/A,,Clear,50,2013-04-10 04:35:00
10:55 PM,48.2,19.4,32,30.06,10.0,ENE,16.1,27.6,N/A,,Clear,70,2013-04-10 04:55:00
11:15 PM,48.2,19.4,32,30.06,10.0,NE,15.0,28.8,N/A,,Clear,50,2013-04-10 05:15:00
11:35 PM,46.4,19.4,34,30.06,10.0,NE,20.7,31.1,N/A,,Clear,50,2013-04-10 05:35:00
11:55 PM,46.4,19.4,34,30.05,10.0,NE,24.2,33.4,N/A,,Clear,40,2013-04-10 05:55:00